Location: Poughquag
(41.6090°N, 73.6820°W)
Time: 07:39:20
(UTC-05:00)

STRAND 1 - Pass Details

Date: 05 December 2023
Orbit: 766 x 778 km, 98.4° (Epoch: 24 February)

Event Time Altitude Azimuth Distance (km) Brightness Sun altitude
Exits shadow 18:04:27 29° 49° (NE) 1,384 ? -18.1°
Maximum altitude 18:06:29 42° 98° (E) 1,082 ? -18.5°
Drops below altitude 10° 18:11:17 10° 169° (S) 2,301 ? -19.3°
Sets 18:13:41 0° 177° (S) 3,224 ? -19.8°
